Hourly Data Report for October 01, 2015

All times are specified in Local Standard Time (LST). Add 1 hour to adjust for Daylight Saving Time where and when it is observed.

SAINT JOHN A
NEW BRUNSWICK

45°18'58.000" N
65°53'24.000" W
108.80 m
8104901
71609
YSJ

Download Data

Hourly Data (October 2015)
Hourly Data Report for October 1, 2015
Temp Definition
°C
Dew Point Temp Definition
°C
Rel Hum Definition
%
Wind Dir Definition
10's deg

Wind Spd Definition
km/h
Visibility Definition
km
Stn Press Definition
kPa
Hmdx Definition


Wind Chill Definition


Weather Definition


TIME
00:00 Legend Double Dagger 16.4 16.1 98 31 14 3.2 99.56     Rain,Fog
01:00 Legend Double Dagger 13.1 12.8 98 35 32 8.1 99.66     Rain,Fog
02:00 Legend Double Dagger 11.9 11.4 97 1 40 8.1 99.72     Rain,Fog
03:00 Legend Double Dagger 10.9 10.3 96 1 40 8.1 99.82     Rain,Fog
04:00 Legend Double Dagger 10.8 10.0 95 1 35 24.1 99.94     LegendNANA
05:00 Legend Double Dagger 11.2 10.1 93 2 44 24.1 100.03     Cloudy
06:00 Legend Double Dagger 11.1 10.2 94 36 39 24.1 100.13     LegendNANA
07:00 Legend Double Dagger 10.4 9.8 96 1 37 4.8 100.31     Drizzle,Fog
08:00 Legend Double Dagger 9.7 9.1 96 36 36 4.8 100.35     Fog
09:00 Legend Double Dagger 9.6 9.0 96 36 25 4.8 100.52     Fog
10:00 Legend Double Dagger 10.2 9.1 93 1 29 4.8 100.57     Fog
11:00 Legend Double Dagger 10.9 9.2 89 1 27 12.9 100.67     Cloudy
12:00 Legend Double Dagger 10.9 9.0 88 1 30 12.9 100.74     LegendNANA
13:00 Legend Double Dagger 10.8 8.6 86 1 34 12.9 100.74     LegendNANA
14:00 Legend Double Dagger 10.6 8.4 86 1 37 12.9 100.76     Cloudy
15:00 Legend Double Dagger 11.2 8.6 84 1 37 24.1 100.83     LegendNANA
16:00 Legend Double Dagger 10.8 8.2 84 3 33 24.1 100.88     LegendNANA
17:00 Legend Double Dagger 10.6 8.0 84 1 28 24.1 100.97     Cloudy
18:00 Legend Double Dagger 10.3 7.6 83 3 23 24.1 101.05     LegendNANA
19:00 Legend Double Dagger 10.2 6.9 80 1 34 24.1 101.12     LegendNANA
20:00 Legend Double Dagger 9.7 6.8 82 2 34 24.1 101.14     Cloudy
21:00 Legend Double Dagger 9.5 6.2 80 2 29 24.1 101.18     LegendNANA
22:00 Legend Double Dagger 9.1 6.0 81 3 23 24.1 101.16     LegendNANA
23:00 Legend Double Dagger 8.7 5.8 82 3 19 24.1 101.17     Cloudy

Notes on Data Quality.

Legend

  • E = Estimated
  • M = Missing
  • NA = Not Available
  • ‡ = Partner data that is not subject to review by the National Climate Archives
Date modified: